Regional Weather Roundup
Issued by NWS

Home | Current Version | Previous Version | Text Only | Print | Product List | Glossary Off
Versions: 1 2 3 4 5 6 7 8 9 10 11 12 13 14 15 16 17 18 19 20 21 22 23 24 25 26 27 28 29 30 31 32 33 34 35 36 37 38 39 40 41 42 43 44 45 46 47 48 49 50

374
ASUS43 KOAX 171110
RWRNE

WEATHER ROUNDUP FOR NEBRASKA
NATIONAL WEATHER SERVICE OMAHA NE
500 AM CST SAT FEB 17 2018

NOTES: SATELLITE DATA IS BEING USED TO AUGMENT CLOUD COVER ABOVE
       12000 FEET.
       "FAIR" INDICATES FEW OR NO CLOUDS BELOW 12,000 FEET WITH NO
       SIGNIFICANT WEATHER AND/OR OBSTRUCTIONS TO VISIBILITY.


NEZ001>004-019>022-054>056-171200-
NEBRASKA PANHANDLE

CITY           SKY/WX    TMP DP  RH WIND       PRES   REMARKS
SCOTTSBLUFF    CLEAR     28  17  63 CALM      29.91R
ALLIANCE       CLEAR     24  19  81 W12       29.89R WCI  13
CHADRON        MOCLDY    16  14  92 SW7       29.89S WCI   6
GORDON         FAIR      23  18  81 W10       29.85R WCI  12
KIMBALL        CLEAR     31  15  53 W16       29.92R WCI  20
SIDNEY         CLEAR     28  17  63 NW13      29.92R WCI  17
$$

NEZ057>060-069>072-079>082-171200-
SOUTHWEST NEBRASKA

CITY           SKY/WX    TMP DP  RH WIND       PRES   REMARKS
NORTH PLATTE   PTCLDY    24  19  81 NW7       29.88R WCI  16
IMPERIAL       CLEAR     36  20  52 NW18G30   29.92R WCI  26
LEXINGTON      CLEAR     28  19  70 W5        29.87R WCI  22
MCCOOK         CLEAR     24  20  84 SW6       29.89R WCI  17
OGALLALA       CLEAR     36  20  53 NW17G24   29.90R WCI  25
$$

NEZ005>010-023>029-035>040-094-171200-
NORTH CENTRAL NEBRASKA

CITY           SKY/WX    TMP DP  RH WIND       PRES   REMARKS
VALENTINE      CLOUDY    29  23  78 NW10      29.85R WCI  20
AINSWORTH      CLOUDY    30  25  81 NW7       29.83R WCI  23
BROKEN BOW     CLEAR     26  19  74 W13       29.84R WCI  15
O`NEILL        CLOUDY    28  22  81 SW3       29.81R
ORD            CLEAR     26  20  77 SW12      29.83R WCI  16
THEDFORD       MOCLDY    31  26  81 W8        29.85R WCI  24
$$

NEZ041-046>049-061>064-073>077-083>087-171200-
SOUTH CENTRAL NEBRASKA

CITY           SKY/WX    TMP DP  RH WIND       PRES   REMARKS
GRAND ISLAND   PTCLDY    28  17  63 SW18      29.85S WCI  15
AURORA         PTCLDY    26  17  66 SW10      29.86S WCI  17
HASTINGS       CLEAR     26  15  63 SW13      29.85F WCI  15
HEBRON         PTCLDY    27  17  67 SW5       29.90F WCI  21
HOLDREGE       CLEAR     25  19  77 SW13      29.86R WCI  13
KEARNEY        CLEAR     26  18  71 SW14      29.87R WCI  14
YORK           PTCLDY    23  18  80 SW9       29.87S WCI  13
$$

NEZ011>018-030>034-042>045-171200-
NORTHEAST NEBRASKA

CITY           SKY/WX    TMP DP  RH WIND       PRES   REMARKS
NORFOLK        CLOUDY    26  19  74 VRB5      29.84F WCI  20
ALBION         PTCLDY    28  19  71 S5        29.84S WCI  22
BLAIR          CLOUDY    30  18  59 S13       29.89F WCI  20
COLUMBUS       PTCLDY    26  17  68 S9        29.87F WCI  17
FREMONT        MOCLDY    28  17  63 S6        29.90S WCI  21
TEKAMAH        CLOUDY    27  19  72 S9        29.91F WCI  18
WAYNE          LGT SNOW  26  26  96 SW13      29.85F WCI  15
$$

NEZ050>053-065>068-078-088>093-171200-
SOUTHEAST NEBRASKA

CITY           SKY/WX    TMP DP  RH WIND       PRES   REMARKS
LINCOLN        CLOUDY    29  17  61 S12       29.92F WCI  19
OMAHA EPPLEY   CLOUDY    30  15  53 S14       29.92F WCI  19
BEATRICE       PTCLDY    31  19  59 S10       29.91F WCI  22
FALLS CITY     CLOUDY    31  13  47 S8        29.95F WCI  23
NEBRASKA CITY  CLOUDY    31  17  57 S13       29.92F WCI  21
PLATTSMOUTH    CLOUDY    30  16  55 S12G17    29.91F WCI  21
$$

NEZ044-045-051>053-067-171200-
OMAHA AREA

CITY           SKY/WX    TMP DP  RH WIND       PRES   REMARKS
OMAHA EPPLEY   CLOUDY    30  15  53 S14       29.92F WCI  19
BLAIR          CLOUDY    30  18  59 S13       29.89F WCI  20
FREMONT        MOCLDY    28  17  63 S6        29.90S WCI  21
MILLARD        CLOUDY    31  17  55 S7        29.92F WCI  25
OFFUTT AFB     CLOUDY    28  16  60 SE8       29.92F WCI  20
PLATTSMOUTH    CLOUDY    30  16  55 S12G17    29.91F WCI  21
WAHOO          FAIR      27  18  67 S9        29.89F WCI  18
$$




USA.gov is the U.S. government's official web portal to all federal, state and local government web resources and services.